Weather in Troyetskiy

Russia / Volgograd Oblast     50°21′49″N   42°51′57″E
temp.,
°C
wind,
m/s
gust,
m/s
humid.,
%
clouds,
%
prec.,
mm/h
press.,
hPa
HPBL,
m
4 march, thu
thu400:00−2wnw4108241 0.0 1018453
03:00−2wsw5118445 0.0 1018380
06:00−1wsw7129088 0.1 1016609
09:000w8138094 0.1 1015906
12:00+3wsw9146275 0.0 10141006
15:00+5wsw9145438 0.0 10111259
18:00+3sw716670 0.0 1010597
21:00+2sw717710 0.0 1009615
5 march, fri
fri500:00+2sw8188018 0.0 1007644
03:00+3wsw9178346 0.0 1007703
06:00+2wsw81594100 0.3 1006592
09:00+2wsw61297100 1.0 1008527
12:00+2w4998100 1.0 1009441
15:00+4w61079100 1.4 1010978
18:000nnw3592100 0.0 1012165
21:00−1n2389100 0.0 1014177
6 march, sat
sat600:00−1ene1291100 0.1 1014129
03:00−1ene3589100 0.3 1014361
06:00−2ne4793100 0.7 1013415
09:00−2ene5893100 2.4 1013548
12:00−2ne5892100 1.3 1012587
15:00−2nne6892100 2.5 1012592
18:00−3n5793100 0.5 1013490
21:00−5nne239372 0.6 101579
7 march, sun
sun700:00−5nnw119117 0.0 101626
03:00−5sw119155 0.0 101728
06:00−5sw119693 0.1 101829
09:00−4wnw468688 0.1 1020565
12:00−3wsw687165 0.0 1019960
15:00−3wsw8117160 0.0 10161106
18:00−3sw81575100 0.0 10141014
21:00−2sw91769100 0.0 10131050
8 march, mon
mon800:00−2wsw91771100 0.0 1010872
03:00−3wsw7157899 0.0 1009668
06:00−2sw81582100 0.0 1008679
09:00−1wsw91581100 0.0 1008960
12:000wsw101578100 0.1 10071209
15:00+1wsw101581100 0.1 10081309
18:00−1wnw4117698 1.0 1010775
21:00−4nnw376294 1.0 1014360